owner,sensor,date,latitude,longitude,vertical_datum,wind_speed,wind_to_direction,wind_speed_of_gust,qcFlag 
DISL,ioos:station:DISL:PPTA:1,2013-03-01T00:00:00Z,30.2791,-87.5561,0.0,4.64,300.0,-9999.0,'1111122,1111122,1111122' 
DISL,ioos:station:DISL:PPTA:1,2013-03-01T00:30:00Z,30.2791,-87.5561,0.0,4.56,312.4,-9999.0,'1111122,1111122,1111122' 
DISL,ioos:station:DISL:PPTA:1,2013-03-01T01:00:00Z,30.2791,-87.5561,0.0,3.47,316.8,-9999.0,'1111122,1111122,1111122' 
DISL,ioos:station:DISL:PPTA:1,2013-03-01T01:30:00Z,30.2791,-87.5561,0.0,4.59,295.3,-9999.0,'1111122,1111122,1111122' 
DISL,ioos:station:DISL:PPTA:1,2013-03-01T02:00:00Z,30.2791,-87.5561,0.0,4.87,295.7,-9999.0,'1111122,1111122,1111122' 
DISL,ioos:station:DISL:PPTA:1,2013-03-01T02:30:00Z,30.2791,-87.5561,0.0,4.92,301.3,-9999.0,'1111122,1111122,1111122' 
DISL,ioos:station:DISL:PPTA:1,2013-03-01T03:00:00Z,30.2791,-87.5561,0.0,5.15,297.8,-9999.0,'1111122,1111122,1111122' 
DISL,ioos:station:DISL:PPTA:1,2013-03-01T03:30:00Z,30.2791,-87.5561,0.0,4.72,287.8,-9999.0,'1111122,1111122,1111122' 
DISL,ioos:station:DISL:PPTA:1,2013-03-01T04:00:00Z,30.2791,-87.5561,0.0,3.56,281.5,-9999.0,'1111122,1111122,1111122' 
DISL,ioos:station:DISL:PPTA:1,2013-03-01T04:30:00Z,30.2791,-87.5561,0.0,3.57,278.7,-9999.0,'1111122,1111122,1111122' 
DISL,ioos:station:DISL:PPTA:1,2013-03-01T05:00:00Z,30.2791,-87.5561,0.0,3.64,281.8,-9999.0,'1111122,1111122,1111122' 
DISL,ioos:station:DISL:PPTA:1,2013-03-01T05:30:00Z,30.2791,-87.5561,0.0,3.24,275.1,-9999.0,'1111122,1111122,1111122' 
DISL,ioos:station:DISL:PPTA:1,2013-03-01T06:00:00Z,30.2791,-87.5561,0.0,4.95,288.9,-9999.0,'1111122,1111122,1111122' 
DISL,ioos:station:DISL:PPTA:1,2013-03-01T06:30:00Z,30.2791,-87.5561,0.0,4.66,318.1,-9999.0,'1111122,1111122,1111122' 
DISL,ioos:station:DISL:PPTA:1,2013-03-01T07:00:00Z,30.2791,-87.5561,0.0,4.33,331.7,-9999.0,'1111122,1111122,1111122' 
DISL,ioos:station:DISL:PPTA:1,2013-03-01T07:30:00Z,30.2791,-87.5561,0.0,3.64,332.9,-9999.0,'1111122,1111122,1111122' 
DISL,ioos:station:DISL:PPTA:1,2013-03-01T08:00:00Z,30.2791,-87.5561,0.0,3.4,320.2,-9999.0,'1111122,1111122,1111122' 
DISL,ioos:station:DISL:PPTA:1,2013-03-01T08:30:00Z,30.2791,-87.5561,0.0,3.18,326.8,-9999.0,'1111122,1111122,1111122' 
DISL,ioos:station:DISL:PPTA:1,2013-03-01T09:00:00Z,30.2791,-87.5561,0.0,3.23,348.0,-9999.0,'1111122,1111122,1111122' 
DISL,ioos:station:DISL:PPTA:1,2013-03-01T09:30:00Z,30.2791,-87.5561,0.0,3.43,359.7,-9999.0,'1111122,1111122,1111122' 
DISL,ioos:station:DISL:PPTA:1,2013-03-01T10:00:00Z,30.2791,-87.5561,0.0,4.04,4.488,-9999.0,'1111122,1111122,1111122' 
DISL,ioos:station:DISL:PPTA:1,2013-03-01T10:30:00Z,30.2791,-87.5561,0.0,3.92,334.3,-9999.0,'1111122,1111122,1111122' 
DISL,ioos:station:DISL:PPTA:1,2013-03-01T11:00:00Z,30.2791,-87.5561,0.0,3.64,334.6,-9999.0,'1111122,1111122,1111122' 
DISL,ioos:station:DISL:PPTA:1,2013-03-01T11:30:00Z,30.2791,-87.5561,0.0,3.17,342.4,-9999.0,'1111122,1111122,1111122' 
DISL,ioos:station:DISL:PPTA:1,2013-03-01T12:00:00Z,30.2791,-87.5561,0.0,3.61,5.622,-9999.0,'1111122,1111122,1111122' 
DISL,ioos:station:DISL:PPTA:1,2013-03-01T12:30:00Z,30.2791,-87.5561,0.0,3.33,2.257,-9999.0,'1111122,1111122,1111122' 
DISL,ioos:station:DISL:PPTA:1,2013-03-01T13:00:00Z,30.2791,-87.5561,0.0,2.85,332.5,-9999.0,'1111122,1111122,1111122' 
DISL,ioos:station:DISL:PPTA:1,2013-03-01T13:30:00Z,30.2791,-87.5561,0.0,2.57,332.7,-9999.0,'1111122,1111122,1111122' 
DISL,ioos:station:DISL:PPTA:1,2013-03-01T14:00:00Z,30.2791,-87.5561,0.0,3.03,345.5,-9999.0,'1111122,1111122,1111122' 
DISL,ioos:station:DISL:PPTA:1,2013-03-01T14:30:00Z,30.2791,-87.5561,0.0,2.89,2.61,-9999.0,'1111122,1111122,1111122' 
DISL,ioos:station:DISL:PPTA:1,2013-03-01T15:00:00Z,30.2791,-87.5561,0.0,3.4,357.2,-9999.0,'1111122,1111122,1111122' 
DISL,ioos:station:DISL:PPTA:1,2013-03-01T15:30:00Z,30.2791,-87.5561,0.0,2.84,346.4,-9999.0,'1111122,1111122,1111122' 
DISL,ioos:station:DISL:PPTA:1,2013-03-01T16:00:00Z,30.2791,-87.5561,0.0,1.62,349.4,-9999.0,'1111122,1111122,1111122' 
DISL,ioos:station:DISL:PPTA:1,2013-03-01T16:30:00Z,30.2791,-87.5561,0.0,1.68,300.0,-9999.0,'1111122,1111122,1111122' 
DISL,ioos:station:DISL:PPTA:1,2013-03-01T17:00:00Z,30.2791,-87.5561,0.0,1.86,304.1,-9999.0,'1111122,1111122,1111122' 
DISL,ioos:station:DISL:PPTA:1,2013-03-01T17:30:00Z,30.2791,-87.5561,0.0,1.71,285.5,-9999.0,'1111122,1111122,1111122' 
DISL,ioos:station:DISL:PPTA:1,2013-03-01T18:00:00Z,30.2791,-87.5561,0.0,2.26,181.7,-9999.0,'1111122,1111122,1111122' 
DISL,ioos:station:DISL:PPTA:1,2013-03-01T18:30:00Z,30.2791,-87.5561,0.0,3.07,169.5,-9999.0,'1111122,1111122,1111122' 
DISL,ioos:station:DISL:PPTA:1,2013-03-01T19:00:00Z,30.2791,-87.5561,0.0,4.78,251.3,-9999.0,'1111122,1111122,1111122' 
DISL,ioos:station:DISL:PPTA:1,2013-03-01T19:30:00Z,30.2791,-87.5561,0.0,4.77,238.4,-9999.0,'1111122,1111122,1111122' 
DISL,ioos:station:DISL:PPTA:1,2013-03-01T20:00:00Z,30.2791,-87.5561,0.0,4.03,227.1,-9999.0,'1111122,1111122,1111122' 
DISL,ioos:station:DISL:PPTA:1,2013-03-01T20:30:00Z,30.2791,-87.5561,0.0,3.48,225.6,-9999.0,'1111122,1111122,1111122' 
DISL,ioos:station:DISL:PPTA:1,2013-03-01T21:00:00Z,30.2791,-87.5561,0.0,3.72,231.3,-9999.0,'1111122,1111122,1111122' 
DISL,ioos:station:DISL:PPTA:1,2013-03-01T21:30:00Z,30.2791,-87.5561,0.0,3.63,227.3,-9999.0,'1111122,1111122,1111122' 
DISL,ioos:station:DISL:PPTA:1,2013-03-01T22:00:00Z,30.2791,-87.5561,0.0,3.25,225.3,-9999.0,'1111122,1111122,1111122' 
DISL,ioos:station:DISL:PPTA:1,2013-03-01T22:30:00Z,30.2791,-87.5561,0.0,3.81,231.1,-9999.0,'1111122,1111122,1111122' 
DISL,ioos:station:DISL:PPTA:1,2013-03-01T23:00:00Z,30.2791,-87.5561,0.0,4.08,235.5,-9999.0,'1111122,1111122,1111122' 
DISL,ioos:station:DISL:PPTA:1,2013-03-01T23:30:00Z,30.2791,-87.5561,0.0,3.49,238.2,-9999.0,'1111122,1111122,1111122' 
DISL,ioos:station:DISL:PPTA:1,2013-03-02T00:00:00Z,30.2791,-87.5561,0.0,2.11,246.7,-9999.0,'1111122,1111122,1111122' 
DISL,ioos:station:DISL:PPTA:1,2013-03-02T00:30:00Z,30.2791,-87.5561,0.0,0.74,269.4,-9999.0,'1111122,1111122,1111122' 
DISL,ioos:station:DISL:PPTA:1,2013-03-02T01:00:00Z,30.2791,-87.5561,0.0,1.17,239.7,-9999.0,'1111122,1111122,1111122' 
DISL,ioos:station:DISL:PPTA:1,2013-03-02T01:30:00Z,30.2791,-87.5561,0.0,0.97,266.0,-9999.0,'1111122,1111122,1111122' 
DISL,ioos:station:DISL:PPTA:1,2013-03-02T02:00:00Z,30.2791,-87.5561,0.0,2.49,273.7,-9999.0,'1111122,1111122,1111122' 
DISL,ioos:station:DISL:PPTA:1,2013-03-02T02:30:00Z,30.2791,-87.5561,0.0,3.09,282.7,-9999.0,'1111122,1111122,1111122' 
DISL,ioos:station:DISL:PPTA:1,2013-03-02T03:00:00Z,30.2791,-87.5561,0.0,4.58,308.2,-9999.0,'1111122,1111122,1111122' 
DISL,ioos:station:DISL:PPTA:1,2013-03-02T03:30:00Z,30.2791,-87.5561,0.0,4.26,314.3,-9999.0,'1111122,1111122,1111122' 
DISL,ioos:station:DISL:PPTA:1,2013-03-02T04:00:00Z,30.2791,-87.5561,0.0,4.35,321.2,-9999.0,'1111122,1111122,1111122' 
DISL,ioos:station:DISL:PPTA:1,2013-03-02T04:30:00Z,30.2791,-87.5561,0.0,4.55,322.9,-9999.0,'1111122,1111122,1111122' 
DISL,ioos:station:DISL:PPTA:1,2013-03-02T05:00:00Z,30.2791,-87.5561,0.0,5.07,319.1,-9999.0,'1111122,1111122,1111122' 
DISL,ioos:station:DISL:PPTA:1,2013-03-02T05:30:00Z,30.2791,-87.5561,0.0,4.7,331.6,-9999.0,'1111122,1111122,1111122' 
DISL,ioos:station:DISL:PPTA:1,2013-03-02T06:00:00Z,30.2791,-87.5561,0.0,4.15,325.4,-9999.0,'1111122,1111122,1111122' 
DISL,ioos:station:DISL:PPTA:1,2013-03-02T06:30:00Z,30.2791,-87.5561,0.0,3.85,323.7,-9999.0,'1111122,1111122,1111122' 
DISL,ioos:station:DISL:PPTA:1,2013-03-02T07:00:00Z,30.2791,-87.5561,0.0,4.37,312.8,-9999.0,'1111122,1111122,1111122' 
DISL,ioos:station:DISL:PPTA:1,2013-03-02T07:30:00Z,30.2791,-87.5561,0.0,4115.04,0.0,-9999.0,'1111122,1114422,1111122' 
DISL,ioos:station:DISL:PPTA:1,2013-03-02T08:00:00Z,30.2791,-87.5561,0.0,3.47,291.0,-9999.0,'1111122,1111122,1111122' 
DISL,ioos:station:DISL:PPTA:1,2013-03-02T08:30:00Z,30.2791,-87.5561,0.0,4.08,291.3,-9999.0,'1111122,1111122,1111122' 
DISL,ioos:station:DISL:PPTA:1,2013-03-02T09:00:00Z,30.2791,-87.5561,0.0,3.77,294.3,-9999.0,'1111122,1111122,1111122' 
DISL,ioos:station:DISL:PPTA:1,2013-03-02T09:30:00Z,30.2791,-87.5561,0.0,3.3,292.9,-9999.0,'1111122,1111122,1111122' 
DISL,ioos:station:DISL:PPTA:1,2013-03-02T10:00:00Z,30.2791,-87.5561,0.0,4.1,288.8,-9999.0,'1111122,1111122,1111122' 
DISL,ioos:station:DISL:PPTA:1,2013-03-02T10:30:00Z,30.2791,-87.5561,0.0,3.55,288.6,-9999.0,'1111122,1111122,1111122' 
DISL,ioos:station:DISL:PPTA:1,2013-03-02T11:00:00Z,30.2791,-87.5561,0.0,4.07,299.6,-9999.0,'1111122,1111122,1111122' 
DISL,ioos:station:DISL:PPTA:1,2013-03-02T11:30:00Z,30.2791,-87.5561,0.0,3.21,299.5,-9999.0,'1111122,1111122,1111122' 
DISL,ioos:station:DISL:PPTA:1,2013-03-02T12:00:00Z,30.2791,-87.5561,0.0,3.82,283.8,-9999.0,'1111122,1111122,1111122' 
DISL,ioos:station:DISL:PPTA:1,2013-03-02T12:30:00Z,30.2791,-87.5561,0.0,3.73,297.0,-9999.0,'1111122,1111122,1111122' 
DISL,ioos:station:DISL:PPTA:1,2013-03-02T13:00:00Z,30.2791,-87.5561,0.0,4.02,284.8,-9999.0,'1111122,1111122,1111122' 
DISL,ioos:station:DISL:PPTA:1,2013-03-02T13:30:00Z,30.2791,-87.5561,0.0,3.94,287.9,-9999.0,'1111122,1111122,1111122' 
DISL,ioos:station:DISL:PPTA:1,2013-03-02T14:00:00Z,30.2791,-87.5561,0.0,4.2,293.1,-9999.0,'1111122,1111122,1111122' 
DISL,ioos:station:DISL:PPTA:1,2013-03-02T14:30:00Z,30.2791,-87.5561,0.0,4.82,293.1,-9999.0,'1111122,1111122,1111122' 
DISL,ioos:station:DISL:PPTA:1,2013-03-02T15:00:00Z,30.2791,-87.5561,0.0,5.4,323.7,-9999.0,'1111122,1111122,1111122' 
DISL,ioos:station:DISL:PPTA:1,2013-03-02T15:30:00Z,30.2791,-87.5561,0.0,6.12,319.1,-9999.0,'1111122,1111122,1111122' 
DISL,ioos:station:DISL:PPTA:1,2013-03-02T16:00:00Z,30.2791,-87.5561,0.0,5.94,309.6,-9999.0,'1111122,1111122,1111122' 
DISL,ioos:station:DISL:PPTA:1,2013-03-02T16:30:00Z,30.2791,-87.5561,0.0,6.19,290.1,-9999.0,'1111122,1111122,1111122' 
DISL,ioos:station:DISL:PPTA:1,2013-03-02T17:00:00Z,30.2791,-87.5561,0.0,6.33,292.8,-9999.0,'1111122,1111122,1111122' 
DISL,ioos:station:DISL:PPTA:1,2013-03-02T17:30:00Z,30.2791,-87.5561,0.0,6.11,282.0,-9999.0,'1111122,1111122,1111122' 
DISL,ioos:station:DISL:PPTA:1,2013-03-02T18:00:00Z,30.2791,-87.5561,0.0,6.63,305.1,-9999.0,'1111122,1111122,1111122' 
DISL,ioos:station:DISL:PPTA:1,2013-03-02T18:30:00Z,30.2791,-87.5561,0.0,6.35,297.6,-9999.0,'1111122,1111122,1111122' 
DISL,ioos:station:DISL:PPTA:1,2013-03-02T19:00:00Z,30.2791,-87.5561,0.0,7.94,280.1,-9999.0,'1111122,1111122,1111122' 
DISL,ioos:station:DISL:PPTA:1,2013-03-02T19:30:00Z,30.2791,-87.5561,0.0,7.14,274.8,-9999.0,'1111122,1111122,1111122' 
DISL,ioos:station:DISL:PPTA:1,2013-03-02T20:00:00Z,30.2791,-87.5561,0.0,6.53,296.2,-9999.0,'1111122,1111122,1111122' 
DISL,ioos:station:DISL:PPTA:1,2013-03-02T20:30:00Z,30.2791,-87.5561,0.0,7.36,290.0,-9999.0,'1111122,1111122,1111122' 
DISL,ioos:station:DISL:PPTA:1,2013-03-02T21:00:00Z,30.2791,-87.5561,0.0,6.53,304.4,-9999.0,'1111122,1111122,1111122' 
DISL,ioos:station:DISL:PPTA:1,2013-03-02T21:30:00Z,30.2791,-87.5561,0.0,6.55,291.7,-9999.0,'1111122,1111122,1111122' 
DISL,ioos:station:DISL:PPTA:1,2013-03-02T22:00:00Z,30.2791,-87.5561,0.0,6.53,293.3,-9999.0,'1111122,1111122,1111122' 
DISL,ioos:station:DISL:PPTA:1,2013-03-02T22:30:00Z,30.2791,-87.5561,0.0,6.29,294.3,-9999.0,'1111122,1111122,1111122' 
DISL,ioos:station:DISL:PPTA:1,2013-03-02T23:00:00Z,30.2791,-87.5561,0.0,6.47,294.0,-9999.0,'1111122,1111122,1111122' 
DISL,ioos:station:DISL:PPTA:1,2013-03-02T23:30:00Z,30.2791,-87.5561,0.0,6.29,312.2,-9999.0,'1111122,1111122,1111122' 
DISL,ioos:station:DISL:PPTA:1,2013-03-03T00:00:00Z,30.2791,-87.5561,0.0,6.38,307.6,-9999.0,'1111122,1111122,1111122' 
DISL,ioos:station:DISL:PPTA:1,2013-03-03T00:30:00Z,30.2791,-87.5561,0.0,5.84,304.8,-9999.0,'1111122,1111122,1111122' 
DISL,ioos:station:DISL:PPTA:1,2013-03-03T01:00:00Z,30.2791,-87.5561,0.0,5.54,309.2,-9999.0,'1111122,1111122,1111122' 
DISL,ioos:station:DISL:PPTA:1,2013-03-03T01:30:00Z,30.2791,-87.5561,0.0,4.76,316.7,-9999.0,'1111122,1111122,1111122' 
DISL,ioos:station:DISL:PPTA:1,2013-03-03T02:00:00Z,30.2791,-87.5561,0.0,5.34,311.6,-9999.0,'1111122,1111122,1111122' 
DISL,ioos:station:DISL:PPTA:1,2013-03-03T02:30:00Z,30.2791,-87.5561,0.0,5.05,306.7,-9999.0,'1111122,1111122,1111122' 
DISL,ioos:station:DISL:PPTA:1,2013-03-03T03:00:00Z,30.2791,-87.5561,0.0,5.06,307.8,-9999.0,'1111122,1111122,1111122' 
DISL,ioos:station:DISL:PPTA:1,2013-03-03T03:30:00Z,30.2791,-87.5561,0.0,5.43,309.7,-9999.0,'1111122,1111122,1111122' 
DISL,ioos:station:DISL:PPTA:1,2013-03-03T04:00:00Z,30.2791,-87.5561,0.0,6.08,293.3,-9999.0,'1111122,1111122,1111122' 
DISL,ioos:station:DISL:PPTA:1,2013-03-03T04:30:00Z,30.2791,-87.5561,0.0,5.05,298.6,-9999.0,'1111122,1111122,1111122' 
DISL,ioos:station:DISL:PPTA:1,2013-03-03T05:00:00Z,30.2791,-87.5561,0.0,5.39,282.0,-9999.0,'1111122,1111122,1111122' 
DISL,ioos:station:DISL:PPTA:1,2013-03-03T05:30:00Z,30.2791,-87.5561,0.0,6.07,292.6,-9999.0,'1111122,1111122,1111122' 
DISL,ioos:station:DISL:PPTA:1,2013-03-03T06:00:00Z,30.2791,-87.5561,0.0,6.0,295.3,-9999.0,'1111122,1111122,1111122' 
DISL,ioos:station:DISL:PPTA:1,2013-03-03T06:30:00Z,30.2791,-87.5561,0.0,4.91,296.3,-9999.0,'1111122,1111122,1111122' 
DISL,ioos:station:DISL:PPTA:1,2013-03-03T07:00:00Z,30.2791,-87.5561,0.0,5.38,293.2,-9999.0,'1111122,1111122,1111122' 
DISL,ioos:station:DISL:PPTA:1,2013-03-03T07:30:00Z,30.2791,-87.5561,0.0,4.78,294.3,-9999.0,'1111122,1111122,1111122' 
DISL,ioos:station:DISL:PPTA:1,2013-03-03T08:00:00Z,30.2791,-87.5561,0.0,4.79,284.3,-9999.0,'1111122,1111122,1111122' 
DISL,ioos:station:DISL:PPTA:1,2013-03-03T08:30:00Z,30.2791,-87.5561,0.0,5.0,282.8,-9999.0,'1111122,1111122,1111122' 
DISL,ioos:station:DISL:PPTA:1,2013-03-03T09:00:00Z,30.2791,-87.5561,0.0,5.25,286.2,-9999.0,'1111122,1111122,1111122' 
DISL,ioos:station:DISL:PPTA:1,2013-03-03T09:30:00Z,30.2791,-87.5561,0.0,4.95,302.7,-9999.0,'1111122,1111122,1111122' 
DISL,ioos:station:DISL:PPTA:1,2013-03-03T10:00:00Z,30.2791,-87.5561,0.0,4.17,305.1,-9999.0,'1111122,1111122,1111122' 
DISL,ioos:station:DISL:PPTA:1,2013-03-03T10:30:00Z,30.2791,-87.5561,0.0,3.81,312.5,-9999.0,'1111122,1111122,1111122' 
DISL,ioos:station:DISL:PPTA:1,2013-03-03T11:00:00Z,30.2791,-87.5561,0.0,4.01,305.3,-9999.0,'1111122,1111122,1111122' 
DISL,ioos:station:DISL:PPTA:1,2013-03-03T11:30:00Z,30.2791,-87.5561,0.0,4.47,306.0,-9999.0,'1111122,1111122,1111122' 
DISL,ioos:station:DISL:PPTA:1,2013-03-03T12:00:00Z,30.2791,-87.5561,0.0,3.98,324.0,-9999.0,'1111122,1111122,1111122' 
DISL,ioos:station:DISL:PPTA:1,2013-03-03T12:30:00Z,30.2791,-87.5561,0.0,4.03,275.9,-9999.0,'1111122,1111122,1111122' 
DISL,ioos:station:DISL:PPTA:1,2013-03-03T13:00:00Z,30.2791,-87.5561,0.0,4.36,291.0,-9999.0,'1111122,1111122,1111122' 
DISL,ioos:station:DISL:PPTA:1,2013-03-03T13:30:00Z,30.2791,-87.5561,0.0,4.9,290.4,-9999.0,'1111122,1111122,1111122' 
DISL,ioos:station:DISL:PPTA:1,2013-03-03T14:00:00Z,30.2791,-87.5561,0.0,4.58,304.6,-9999.0,'1111122,1111122,1111122' 
DISL,ioos:station:DISL:PPTA:1,2013-03-03T14:30:00Z,30.2791,-87.5561,0.0,4.38,304.5,-9999.0,'1111122,1111122,1111122' 
DISL,ioos:station:DISL:PPTA:1,2013-03-03T15:00:00Z,30.2791,-87.5561,0.0,4.74,292.3,-9999.0,'1111122,1111122,1111122' 
DISL,ioos:station:DISL:PPTA:1,2013-03-03T15:30:00Z,30.2791,-87.5561,0.0,4.44,302.8,-9999.0,'1111122,1111122,1111122' 
DISL,ioos:station:DISL:PPTA:1,2013-03-03T16:00:00Z,30.2791,-87.5561,0.0,3.92,325.0,-9999.0,'1111122,1111122,1111122' 
DISL,ioos:station:DISL:PPTA:1,2013-03-03T16:30:00Z,30.2791,-87.5561,0.0,4.3,316.4,-9999.0,'1111122,1111122,1111122' 
DISL,ioos:station:DISL:PPTA:1,2013-03-03T17:00:00Z,30.2791,-87.5561,0.0,4.91,295.0,-9999.0,'1111122,1111122,1111122' 
DISL,ioos:station:DISL:PPTA:1,2013-03-03T17:30:00Z,30.2791,-87.5561,0.0,5.32,288.0,-9999.0,'1111122,1111122,1111122' 
DISL,ioos:station:DISL:PPTA:1,2013-03-03T18:00:00Z,30.2791,-87.5561,0.0,4.09,275.9,-9999.0,'1111122,1111122,1111122' 
DISL,ioos:station:DISL:PPTA:1,2013-03-03T18:30:00Z,30.2791,-87.5561,0.0,3.33,281.4,-9999.0,'1111122,1111122,1111122' 
DISL,ioos:station:DISL:PPTA:1,2013-03-03T19:00:00Z,30.2791,-87.5561,0.0,3.58,282.0,-9999.0,'1111122,1111122,1111122' 
DISL,ioos:station:DISL:PPTA:1,2013-03-03T19:30:00Z,30.2791,-87.5561,0.0,3.21,284.9,-9999.0,'1111122,1111122,1111122' 
DISL,ioos:station:DISL:PPTA:1,2013-03-03T20:00:00Z,30.2791,-87.5561,0.0,4.25,285.1,-9999.0,'1111122,1111122,1111122' 
DISL,ioos:station:DISL:PPTA:1,2013-03-03T20:30:00Z,30.2791,-87.5561,0.0,5.31,284.4,-9999.0,'1111122,1111122,1111122' 
DISL,ioos:station:DISL:PPTA:1,2013-03-03T21:00:00Z,30.2791,-87.5561,0.0,4.96,294.7,-9999.0,'1111122,1111122,1111122' 
DISL,ioos:station:DISL:PPTA:1,2013-03-03T21:30:00Z,30.2791,-87.5561,0.0,4.0,291.0,-9999.0,'1111122,1111122,1111122' 
DISL,ioos:station:DISL:PPTA:1,2013-03-03T22:00:00Z,30.2791,-87.5561,0.0,3.68,283.2,-9999.0,'1111122,1111122,1111122' 
DISL,ioos:station:DISL:PPTA:1,2013-03-03T22:30:00Z,30.2791,-87.5561,0.0,3.81,284.7,-9999.0,'1111122,1111122,1111122' 
DISL,ioos:station:DISL:PPTA:1,2013-03-03T23:00:00Z,30.2791,-87.5561,0.0,4.29,247.6,-9999.0,'1111122,1111122,1111122' 
DISL,ioos:station:DISL:PPTA:1,2013-03-03T23:30:00Z,30.2791,-87.5561,0.0,3.7,249.8,-9999.0,'1111122,1111122,1111122' 
DISL,ioos:station:DISL:PPTA:1,2013-03-04T00:00:00Z,30.2791,-87.5561,0.0,2.6,246.8,-9999.0,'1111122,1111122,1111122' 
DISL,ioos:station:DISL:PPTA:1,2013-03-04T00:30:00Z,30.2791,-87.5561,0.0,2.88,239.0,-9999.0,'1111122,1111122,1111122' 
DISL,ioos:station:DISL:PPTA:1,2013-03-04T01:00:00Z,30.2791,-87.5561,0.0,2.28,235.4,-9999.0,'1111122,1111122,1111122' 
DISL,ioos:station:DISL:PPTA:1,2013-03-04T01:30:00Z,30.2791,-87.5561,0.0,2.03,238.2,-9999.0,'1111122,1111122,1111122' 
DISL,ioos:station:DISL:PPTA:1,2013-03-04T02:00:00Z,30.2791,-87.5561,0.0,1.85,245.5,-9999.0,'1111122,1111122,1111122' 
DISL,ioos:station:DISL:PPTA:1,2013-03-04T02:30:00Z,30.2791,-87.5561,0.0,1.19,250.4,-9999.0,'1111122,1111122,1111122' 
DISL,ioos:station:DISL:PPTA:1,2013-03-04T03:00:00Z,30.2791,-87.5561,0.0,1.45,238.9,-9999.0,'1111122,1111122,1111122' 
DISL,ioos:station:DISL:PPTA:1,2013-03-04T03:30:00Z,30.2791,-87.5561,0.0,1.58,239.9,-9999.0,'1111122,1111122,1111122' 
DISL,ioos:station:DISL:PPTA:1,2013-03-04T04:00:00Z,30.2791,-87.5561,0.0,1.6,243.5,-9999.0,'1111122,1111122,1111122' 
DISL,ioos:station:DISL:PPTA:1,2013-03-04T04:30:00Z,30.2791,-87.5561,0.0,0.79,267.6,-9999.0,'1111122,1111122,1111122' 
DISL,ioos:station:DISL:PPTA:1,2013-03-04T05:00:00Z,30.2791,-87.5561,0.0,1.08,249.6,-9999.0,'1111122,1111122,1111122' 
DISL,ioos:station:DISL:PPTA:1,2013-03-04T05:30:00Z,30.2791,-87.5561,0.0,0.61,246.3,-9999.0,'1111122,1111122,1111122' 
DISL,ioos:station:DISL:PPTA:1,2013-03-04T06:00:00Z,30.2791,-87.5561,0.0,0.56,284.0,-9999.0,'1111122,1111122,1111122' 
DISL,ioos:station:DISL:PPTA:1,2013-03-04T06:30:00Z,30.2791,-87.5561,0.0,0.58,334.0,-9999.0,'1111122,1111122,1111122' 
DISL,ioos:station:DISL:PPTA:1,2013-03-04T07:00:00Z,30.2791,-87.5561,0.0,0.8,293.0,-9999.0,'1111122,1111122,1111122' 
DISL,ioos:station:DISL:PPTA:1,2013-03-04T07:30:00Z,30.2791,-87.5561,0.0,0.63,280.0,-9999.0,'1111122,1111122,1111122' 
DISL,ioos:station:DISL:PPTA:1,2013-03-04T08:00:00Z,30.2791,-87.5561,0.0,0.59,308.1,-9999.0,'1111122,1111122,1111122' 
DISL,ioos:station:DISL:PPTA:1,2013-03-04T08:30:00Z,30.2791,-87.5561,0.0,0.78,284.4,-9999.0,'1111122,1111122,1111122' 
DISL,ioos:station:DISL:PPTA:1,2013-03-04T09:00:00Z,30.2791,-87.5561,0.0,0.76,354.1,-9999.0,'1111122,1111122,1111122' 
DISL,ioos:station:DISL:PPTA:1,2013-03-04T09:30:00Z,30.2791,-87.5561,0.0,1.14,338.4,-9999.0,'1111122,1111122,1111122' 
DISL,ioos:station:DISL:PPTA:1,2013-03-04T10:00:00Z,30.2791,-87.5561,0.0,0.93,356.8,-9999.0,'1111122,1111122,1111122' 
DISL,ioos:station:DISL:PPTA:1,2013-03-04T10:30:00Z,30.2791,-87.5561,0.0,1.23,356.8,-9999.0,'1111122,1111122,1111122' 
DISL,ioos:station:DISL:PPTA:1,2013-03-04T11:00:00Z,30.2791,-87.5561,0.0,1.0,354.8,-9999.0,'1111122,1111122,1111122' 
DISL,ioos:station:DISL:PPTA:1,2013-03-04T11:30:00Z,30.2791,-87.5561,0.0,0.47,287.0,-9999.0,'1111122,1111122,1111122' 
DISL,ioos:station:DISL:PPTA:1,2013-03-04T12:00:00Z,30.2791,-87.5561,0.0,0.23,323.9,-9999.0,'1111122,1111122,1111122' 
DISL,ioos:station:DISL:PPTA:1,2013-03-04T12:30:00Z,30.2791,-87.5561,0.0,0.21,14.98,-9999.0,'1111122,1111122,1111122' 
DISL,ioos:station:DISL:PPTA:1,2013-03-04T13:00:00Z,30.2791,-87.5561,0.0,1.12,14.92,-9999.0,'1111122,1111122,1111122' 
DISL,ioos:station:DISL:PPTA:1,2013-03-04T13:30:00Z,30.2791,-87.5561,0.0,2.79,55.41,-9999.0,'1111122,1111122,1111122' 
DISL,ioos:station:DISL:PPTA:1,2013-03-04T14:00:00Z,30.2791,-87.5561,0.0,3.14,56.34,-9999.0,'1111122,1111122,1111122' 
DISL,ioos:station:DISL:PPTA:1,2013-03-04T14:30:00Z,30.2791,-87.5561,0.0,3.03,54.35,-9999.0,'1111122,1111122,1111122' 
DISL,ioos:station:DISL:PPTA:1,2013-03-04T15:00:00Z,30.2791,-87.5561,0.0,3.33,81.6,-9999.0,'1111122,1111122,1111122' 
DISL,ioos:station:DISL:PPTA:1,2013-03-04T15:30:00Z,30.2791,-87.5561,0.0,3.77,114.2,-9999.0,'1111122,1111122,1111122' 
DISL,ioos:station:DISL:PPTA:1,2013-03-04T16:00:00Z,30.2791,-87.5561,0.0,4.41,139.2,-9999.0,'1111122,1111122,1111122' 
DISL,ioos:station:DISL:PPTA:1,2013-03-04T16:30:00Z,30.2791,-87.5561,0.0,4.51,136.9,-9999.0,'1111122,1111122,1111122' 
DISL,ioos:station:DISL:PPTA:1,2013-03-04T17:00:00Z,30.2791,-87.5561,0.0,5.08,138.4,-9999.0,'1111122,1111122,1111122' 
DISL,ioos:station:DISL:PPTA:1,2013-03-04T17:30:00Z,30.2791,-87.5561,0.0,5.22,142.5,-9999.0,'1111122,1111122,1111122' 
DISL,ioos:station:DISL:PPTA:1,2013-03-04T18:00:00Z,30.2791,-87.5561,0.0,5.17,141.6,-9999.0,'1111122,1111122,1111122' 
DISL,ioos:station:DISL:PPTA:1,2013-03-04T18:30:00Z,30.2791,-87.5561,0.0,4.65,141.7,-9999.0,'1111122,1111122,1111122' 
DISL,ioos:station:DISL:PPTA:1,2013-03-04T19:00:00Z,30.2791,-87.5561,0.0,4.96,139.6,-9999.0,'1111122,1111122,1111122' 
DISL,ioos:station:DISL:PPTA:1,2013-03-04T19:30:00Z,30.2791,-87.5561,0.0,5.11,148.2,-9999.0,'1111122,1111122,1111122' 
DISL,ioos:station:DISL:PPTA:1,2013-03-04T20:00:00Z,30.2791,-87.5561,0.0,4.93,149.4,-9999.0,'1111122,1111122,1111122' 
DISL,ioos:station:DISL:PPTA:1,2013-03-04T20:30:00Z,30.2791,-87.5561,0.0,5.17,150.1,-9999.0,'1111122,1111122,1111122' 
DISL,ioos:station:DISL:PPTA:1,2013-03-04T21:00:00Z,30.2791,-87.5561,0.0,5.45,152.4,-9999.0,'1111122,1111122,1111122' 
DISL,ioos:station:DISL:PPTA:1,2013-03-04T21:30:00Z,30.2791,-87.5561,0.0,4.82,155.2,-9999.0,'1111122,1111122,1111122' 
DISL,ioos:station:DISL:PPTA:1,2013-03-04T22:00:00Z,30.2791,-87.5561,0.0,5.9,139.0,-9999.0,'1111122,1111122,1111122' 
DISL,ioos:station:DISL:PPTA:1,2013-03-04T22:30:00Z,30.2791,-87.5561,0.0,6.35,142.2,-9999.0,'1111122,1111122,1111122' 
DISL,ioos:station:DISL:PPTA:1,2013-03-04T23:00:00Z,30.2791,-87.5561,0.0,6.26,142.3,-9999.0,'1111122,1111122,1111122' 
DISL,ioos:station:DISL:PPTA:1,2013-03-04T23:30:00Z,30.2791,-87.5561,0.0,6.0,147.2,-9999.0,'1111122,1111122,1111122' 
DISL,ioos:station:DISL:PPTA:1,2013-03-05T00:00:00Z,30.2791,-87.5561,0.0,6.13,148.3,-9999.0,'1111122,1111122,1111122' 
DISL,ioos:station:DISL:PPTA:1,2013-03-05T00:30:00Z,30.2791,-87.5561,0.0,5.72,150.4,-9999.0,'1111122,1111122,1111122' 
DISL,ioos:station:DISL:PPTA:1,2013-03-05T01:00:00Z,30.2791,-87.5561,0.0,5.39,152.9,-9999.0,'1111122,1111122,1111122' 
DISL,ioos:station:DISL:PPTA:1,2013-03-05T01:30:00Z,30.2791,-87.5561,0.0,5.63,148.9,-9999.0,'1111122,1111122,1111122' 
DISL,ioos:station:DISL:PPTA:1,2013-03-05T02:00:00Z,30.2791,-87.5561,0.0,6.35,146.2,-9999.0,'1111122,1111122,1111122' 
DISL,ioos:station:DISL:PPTA:1,2013-03-05T02:30:00Z,30.2791,-87.5561,0.0,5.92,150.8,-9999.0,'1111122,1111122,1111122' 
DISL,ioos:station:DISL:PPTA:1,2013-03-05T03:00:00Z,30.2791,-87.5561,0.0,4.9,153.2,-9999.0,'1111122,1111122,1111122' 
DISL,ioos:station:DISL:PPTA:1,2013-03-05T03:30:00Z,30.2791,-87.5561,0.0,3.64,161.2,-9999.0,'1111122,1111122,1111122' 
DISL,ioos:station:DISL:PPTA:1,2013-03-05T04:00:00Z,30.2791,-87.5561,0.0,2.78,171.5,-9999.0,'1111122,1111122,1111122' 
DISL,ioos:station:DISL:PPTA:1,2013-03-05T04:30:00Z,30.2791,-87.5561,0.0,3.34,169.5,-9999.0,'1111122,1111122,1111122' 